sat.trackr.live / text

‹ back to catalog

LAGEOS 1

NORAD 8820 · 1976-039A

PAYLOAD ACTIVE UNKNOWN

§ Identity

Operator
Country
US
Launch date
1976-05-04
Launch site
AFWTR
Launch vehicle
Mass (kg)
RCS (m²)
0.40

Purposes: science

External: N2YO · Heavens-Above · Gunter

§ Orbital elements

Epoch: 2026-05-24T12:06:14.048064Z

Period
225.47 min
Inclination
109.8031°
Eccentricity
0.0044677
Mean motion
6.38664701 rev/d
Perigee alt
5,838.2 km
Apogee alt
5,947.9 km
Semi-major
12,271.2 km
B*
0.0000e+0
RAAN
171.2328°
Arg perigee
307.3427°
Mean anomaly
224.5567°
Rev number
91,162

§ Raw data

LAGEOS 11 08820U 76039A   26144.50432926  .00000010  00000+0  00000+0 0  99902 08820 109.8031 171.2328 0044677 307.3427 224.5567  6.38664701911621

JSON: /api/v1/satellites/8820 · /tle

For live sub-satellite position, see the globe view (requires WebGL).

§ Visibility from observer

Set your observer location to see the next 7 days of passes ≥ 10°. The values pass through the URL so the page stays shareable.

No JS? Fill the form by hand. The geolocation button needs JavaScript.